FW0274 Weather Reports


Display with metric or nautical units.
time (UTC)temp
F
wind
direction
speed
MPH
gust
MPH
rain 1hr
in
rain 24hr
in
rain mn
in
humidity
%
barometer
mb
20260502221547 45 333 0.0 1.0 0.00 0.02 0.01 64 1017.9
20260502220046 45 360 0.0 0.0 0.00 0.02 0.01 65 1017.9
20260502214546 44 344 0.0 5.0 0.00 0.03 0.01 62 1017.9
20260502213045 44 28 1.0 5.0 0.00 0.03 0.01 64 1017.9
20260502211544 45 18 0.0 4.0 0.00 0.03 0.01 66 1017.8
20260502210043 45 314 0.0 5.0 0.00 0.03 0.01 67 1017.7
20260502204543 45 350 0.0 5.0 0.00 0.03 0.01 63 1017.6
20260502203043 45 338 0.0 1.0 0.00 0.03 0.01 63 1017.7
20260502201548 45 288 0.0 4.0 0.00 0.03 0.01 63 1017.8
20260502200042 45 360 0.0 5.0 0.00 0.03 0.01 64 1017.8
20260502194541 45 15 0.0 1.0 0.00 0.03 0.01 64 1017.9
20260502193049 45 9 1.0 6.0 0.00 0.03 0.01 64 1018.0
20260502191545 45 32 0.0 6.0 0.00 0.03 0.01 66 1018.0
20260502190040 45 351 0.0 4.0 0.00 0.03 0.01 67 1018.1
20260502184552 44 296 0.0 4.0 0.00 0.04 0.01 63 1018.1
20260502183038 45 17 2.0 8.0 0.00 0.04 0.01 61 1018.1
20260502181539 44 301 0.0 2.0 0.00 0.04 0.01 61 1018.1
20260502163032 44 346 0.0 5.0 0.00 0.04 0.01 63 1018.3
20260502161530 44 283 0.0 1.0 0.00 0.04 0.01 64 1018.5
20260502151524 43 348 1.0 8.0 0.00 0.08 0.01 72 1018.5
20260502123005 37 315 0.0 1.0 0.00 0.10 0.01 79 1017.8
20260502121512 37 332 0.0 0.0 0.00 0.10 0.01 78 1017.7
20260502114600 36 320 0.0 0.0 0.00 0.10 0.01 73 1017.5
20260502113059 35 285 0.0 0.0 0.00 0.10 0.01 69 1017.6
20260502111616 34 285 0.0 0.0 0.00 0.10 0.01 69 1017.4
20260502110058 34 284 0.0 0.0 0.00 0.10 0.01 69 1017.4
20260502104556 34 284 0.0 0.0 0.00 0.10 0.01 71 1017.4
20260502101609 34 284 0.0 0.0 0.00 0.10 0.01 69 1017.2
20260502071534 37 280 0.0 0.0 0.00 0.09 0.00 62 1016.8
20260502070033 38 280 0.0 0.0 0.00 0.09 0.00 60 1017.0
20260502064534 38 286 0.0 0.0 0.00 0.09 0.00 59 1017.1
20260502063031 39 241 0.0 0.0 0.00 0.09 0.00 57 1017.1
20260502061528 39 278 0.0 2.0 0.00 0.09 0.00 57 1017.3
20260502060026 39 307 0.0 0.0 0.00 0.09 0.00 57 1017.3
20260502054533 39 310 0.0 0.0 0.00 0.09 0.00 57 1017.4
20260502053026 39 310 0.0 0.0 0.00 0.09 0.00 57 1017.4
20260502051524 40 310 0.0 0.0 0.00 0.09 0.00 57 1017.3
20260502050030 40 313 0.0 0.0 0.00 0.09 0.00 56 1017.5
20260502044519 39 325 0.0 0.0 0.00 0.09 0.00 56 1017.5
20260502043017 38 325 0.0 0.0 0.00 0.09 0.00 59 1017.5
20260502041516 38 325 0.0 0.0 0.00 0.09 0.00 60 1017.5
20260502040012 39 325 0.0 0.0 0.00 0.09 0.00 62 1017.3
20260502034511 39 325 0.0 0.0 0.00 0.09 0.09 62 1017.2
20260502033009 39 325 0.0 0.0 0.00 0.09 0.09 64 1017.4
20260502031508 40 325 0.0 0.0 0.00 0.09 0.09 64 1017.5
20260502030105 40 325 0.0 0.0 0.00 0.09 0.09 65 1017.5
20260502024504 41 325 0.0 0.0 0.00 0.09 0.09 65 1017.5
20260502023003 41 329 0.0 0.0 0.00 0.09 0.09 64 1017.7
20260502021502 42 5 0.0 0.0 0.00 0.09 0.09 65 1017.4
20260502020100 42 5 0.0 0.0 0.00 0.09 0.09 68 1017.0
20260502014559 42 5 0.0 0.0 0.01 0.09 0.09 69 1017.0
20260502013057 42 5 0.0 0.0 0.01 0.09 0.09 72 1016.8
20260502011602 42 5 0.0 0.0 0.01 0.09 0.09 76 1016.2
20260502010055 42 5 0.0 0.0 0.01 0.09 0.09 79 1016.1
20260502004608 43 5 0.0 4.0 0.00 0.08 0.08 79 1016.1
20260502003055 45 28 1.0 7.0 0.00 0.08 0.08 76 1016.3
20260502001553 45 360 0.0 1.0 0.00 0.08 0.08 78 1016.1
20260502000058 46 50 0.0 4.0 0.00 0.08 0.08 77 1015.7
20260501234548 46 9 0.0 2.0 0.00 0.08 0.08 76 1015.4
20260501233048 47 17 0.0 0.0 0.00 0.08 0.08 72 1015.1
20260501231547 47 329 0.0 4.0 0.00 0.08 0.08 73 1015.0
20260501230046 47 301 0.0 1.0 0.00 0.08 0.08 72 1015.0
20260501224546 47 302 0.0 3.0 0.00 0.08 0.08 73 1015.1
20260501223047 47 336 0.0 5.0 0.00 0.08 0.08 75 1015.2